Location: Hollin Hills
(38.7573°N, 77.0661°W)
Time: 11:55:25
(UTC+00:00)

ISS - Pass Details

Date: 24 April 2026
Orbit: 414 x 424 km, 51.6° (Epoch: 11 May)

Event Time Altitude Azimuth Distance (km) Brightness Sun altitude
Exits shadow 09:43:03 - 295° (WNW) 2,236 -0.5 -7.5°
Reaches altitude 10° 09:46:05 10° 329° (NNW) 1,502 -1.0 -6.9°
Maximum altitude 09:47:11 11° 348° (NNW) 1,433 -0.9 -6.7°
Drops below altitude 10° 09:48:16 10° 7° (N) 1,505 -0.5 -6.6°
Sets 09:51:43 0° 44° (NE) 2,375 1.5 -5.9°
